CAPE
0 0 0 0 0 0 1 2 0 0 0 0 0 0 2 0 0 0 0 0 0 0 0 0 0 0 0 0 0 0 0 0 0 4 1 0 0 0 3 42 369 541 240 71
0 0 0 0 0 0 0 0 2 0 0 0 0 0 0 0 0 0 0 0 0 0 0 0 0 0 0 0 0 0 0 0 1 3 1 0 0 0 0 0 0 0 0 1
0 0 0 0 0 0 0 0 0 0 0 9 0 0 0 0 0 0 0 0 0 0 0 0 0 0 0 0 0 0 0 0 11 4 1 3 0 1 1 0 0 0 0 0
1 5 0 0 0 0 0 0 0 0 2 15 0 0 0 0 0 0 0 0 0 0 0 0 0 0 0 0 0 0 0 1 2 3 1 3 0 0 1 0 0 0 0 0
2 6 2 0 0 0 0 0 1 0 9 10 1 0 0 0 0 0 0 0 0 0 0 0 0 0 0 0 0 0 0 1 1 1 0 4 2 0 1 0 0 0 0 0
4 7 8 14 0 0 0 0 1 0 0 0 0 0 0 0 0 0 0 0 0 0 0 0 0 0 0 0 0 0 0 1 3 0 1 4 7 0 1 1 0 0 0 0
6 10 4 0 0 0 0 0 0 0 0 0 0 0 0 0 0 0 0 0 0 0 0 0 0 0 0 0 0 0 0 2 0 0 2 3 1 2 2 1 0 0 0 1
11 14 4 0 0 0 0 0 0 0 0 0 0 0 0 0 0 0 0 0 0 0 0 0 0 0 0 0 0 0 0 0 0 1 1 2 1 1 1 1 0 1 1 1
0 3 0 0 0 0 0 0 0 0 0 0 0 0 0 0 0 0 0 0 0 0 0 0 0 0 0 0 0 1 5 0 0 1 1 2 1 1 1 1 1 2 1 1
0 0 0 0 0 0 0 0 0 0 0 0 2 0 0 0 0 0 0 0 0 0 0 0 0 0 0 0 0 3 0 0 1 1 1 2 3 3 3 3 4 3 3 2
2 0 0 0 0 0 0 0 0 0 0 0 1 3 1 0 0 0 2 3 3 2 2 1 0 0 0 0 2 3 0 2 2 2 2 2 0 1 2 2 2 1 1 0
16 3 0 9 1 0 0 0 0 0 0 0 1 0 0 1 1 3 10 8 10 11 10 1 1 3 0 0 2 0 3 4 4 4 1 1 1 0 1 0 0 1 2 1
0 0 0 0 0 0 0 1 2 3 3 1 1 0 0 2 1 1 7 7 3 1 2 1 1 0 1 1 0 2 2 2 3 2 2 3 2 2 0 1 0 0 0 0
0 0 0 0 0 1 0 1 3 2 1 1 2 1 1 4 8 4 4 0 1 1 1 1 1 0 0 1 1 1 2 2 1 3 3 4 4 6 4 3 2 3 1 1
0 0 0 0 0 0 2 1 0 1 0 1 1 1 3 2 1 1 1 0 0 1 1 1 1 0 0 1 2 2 1 1 2 3 3 4 4 4 3 3 3 3 3 2
0 0 0 0 0 1 0 1 1 1 0 1 1 2 4 2 0 1 1 0 1 1 1 1 1 1 0 1 1 1 2 2 3 3 3 3 3 3 3 3 2 2 2 2
0 0 0 1 1 2 0 0 0 4 1 2 2 3 1 1 1 0 1 0 0 1 1 1 1 1 1 1 4 4 4 2 1 2 1 1 2 2 2 1 1 0 1 0
0 1 2 1 1 2 0 1 4 3 2 3 2 2 1 1 1 0 1 0 0 0 0 0 0 0 0 1 2 2 1 0 0 1 1 2 1 1 1 2 2 2 3 0
0 0 0 0 2 3 0 0 1 3 2 2 2 1 1 1 0 0 0 0 1 0 0 0 0 0 1 0 0 1 2 2 1 2 1 0 2 1 2 2 2 2 1 2
0 0 0 0 2 5 4 2 1 2 1 2 1 1 2 2 1 1 1 1 1 1 1 0 0 1 0 1 1 3 3 3 3 4 4 4 1 0 2 2 1 0 0 0
0 0 0 0 0 0 2 1 2 1 0 1 1 2 2 2 1 0 1 2 2 0 0 0 0 1 0 0 2 3 0 0 0 1 0 0 0 1 0 0 0 0 0 0
0 1 0 1 1 0 0 0 0 0 0 0 1 1 0 1 1 1 0 2 1 0 0 0 0 0 0 0 0 0 0 1 0 0 0 0 0 0 0 0 0 0 0 0
2 1 1 0 0 3 2 0 0 1 0 1 0 0 2 2 2 3 2 1 2 0 0 0 0 0 0 0 0 0 0 0 0 0 0 0 0 0 0 0 0 0 0 0
1 1 1 0 0 0 2 5 1 0 1 2 0 0 1 5 1 1 1 0 0 0 0 0 0 0 0 0 0 0 0 0 0 0 0 0 0 0 0 0 0 0 0 0
3 1 1 1 2 3 3 3 2 3 4 1 0 1 1 0 2 1 1 2 0 0 1 0 0 0 0 0 0 0 0 0 0 0 0 0 0 0 0 0 0 0 0 0
2 6 5 4 4 3 4 2 2 3 4 2 1 6 3 1 1 1 1 1 1 0 1 0 0 0 0 0 0 0 0 1 0 0 0 1 1 2 1 1 1 0 1 1
1 2 4 6 5 1 0 1 1 3 3 3 0 2 2 0 1 1 0 1 1 0 0 0 0 0 0 0 1 1 2 1 1 0 0 0 0 0 0 0 0 2 1 1
CIN
-2 0 0 0 0 -1 0 0 0 0 0 0 0 0 -7 0 0 0 0 0 0 0 0 0 0 0 0 0 0 0 0 0 0 0 0 0 0 0 -16 -336 -147 -55 -182 -310
0 0 0 0 0 0 0 0 -2 0 0 0 0 0 0 0 0 0 0 0 0 0 0 0 0 0 0 0 0 0 0 0 0 0 0 0 0 0 0 0 0 0 0 0
0 0 -1 0 0 0 0 0 0 0 0 -5 0 0 0 0 0 0 0 0 0 0 0 0 0 0 0 0 0 0 0 0 0 0 0 0 0 0 0 0 0 0 0 0
-2 -3 0 0 0 0 0 0 0 0 -3 -5 -1 0 0 0 0 0 0 0 0 0 0 0 0 0 0 0 0 0 0 0 0 0 0 0 0 0 0 0 0 0 0 0
-1 -3 -4 0 0 0 0 0 -1 0 -4 -10 -3 0 0 0 0 0 0 0 0 0 0 0 0 0 0 0 0 0 0 0 0 0 0 0 0 0 0 0 0 0 0 0
-3 -2 -2 -6 0 0 0 0 -10 0 0 0 0 0 -1 0 0 0 0 0 0 0 0 0 0 0 0 0 0 0 0 0 0 0 0 0 0 0 0 0 0 0 0 0
-1 -2 -3 0 0 0 0 -11 0 0 0 0 0 0 0 0 0 0 0 0 0 0 0 0 0 0 0 0 0 0 0 0 0 0 0 0 0 0 0 0 0 0 0 0
-3 -2 -2 0 0 -1 -2 0 0 0 0 0 0 0 0 0 0 0 0 0 0 0 0 0 0 0 0 0 0 0 -1 0 0 0 0 0 0 0 0 0 0 0 0 0
-1 -5 0 0 0 0 0 0 0 0 0 0 0 0 0 0 0 0 0 0 0 0 0 0 0 0 0 0 0 0 -1 0 0 0 0 0 0 0 0 0 0 0 0 0
0 0 0 0 0 0 0 0 0 0 0 -1 0 -1 0 0 0 0 0 0 0 0 0 0 0 0 0 0 0 0 0 0 0 0 0 0 0 0 0 0 0 0 0 0
-1 0 0 0 0 0 0 0 0 0 0 -1 0 0 -1 0 0 0 -3 -1 -2 -2 -2 -1 0 0 0 0 -1 -1 0 0 0 0 0 0 0 0 0 0 0 0 0 0
-5 -18 0 -10 -24 0 0 0 0 0 0 0 0 0 0 0 0 0 -1 -1 -1 -1 -1 -1 0 0 0 0 0 0 0 0 0 0 0 0 0 0 0 0 0 0 0 0
-3 -1 0 0 0 0 0 -2 -2 -1 0 -1 0 0 0 -2 -2 -2 0 0 0 0 0 0 0 0 0 0 0 0 0 0 0 0 0 0 0 0 0 0 0 0 0 0
0 0 0 0 0 0 -1 -1 0 0 0 0 0 0 0 -5 0 0 0 0 0 0 0 0 0 0 0 0 0 0 0 0 0 0 0 0 0 0 0 0 0 0 0 0
0 0 0 0 0 -1 0 0 -1 0 0 -1 0 0 0 0 0 0 0 0 0 0 0 0 0 0 0 0 0 0 0 0 0 0 0 0 0 0 0 0 0 0 0 0
0 0 0 0 0 0 -2 0 0 -1 -2 0 0 0 0 0 0 0 0 0 0 0 0 0 0 0 0 0 0 0 0 0 0 0 0 0 0 0 0 0 0 0 0 0
0 0 0 0 0 -1 -2 0 0 -1 0 0 0 0 0 0 0 0 0 0 0 0 0 0 0 0 0 0 0 0 0 0 0 0 0 0 0 0 0 0 0 0 0 0
0 -1 0 0 -1 0 -1 -1 0 0 0 0 0 0 0 0 0 0 0 0 0 0 0 0 0 0 0 0 0 0 0 0 0 0 0 0 0 -1 0 0 0 0 0 0
0 0 0 0 0 0 -1 0 0 0 0 0 0 0 0 0 0 0 0 0 0 0 0 0 0 0 0 0 0 0 0 0 0 0 0 0 0 0 0 0 0 0 0 0
0 0 0 0 0 0 0 0 0 0 0 0 0 0 0 0 0 0 0 0 0 0 0 0 0 0 0 -1 -1 0 0 0 0 0 0 0 0 0 0 0 0 0 0 0
0 0 0 0 0 0 -1 0 0 0 0 0 0 0 0 0 0 0 0 0 0 0 0 0 0 0 0 0 -1 0 0 0 0 0 0 0 0 0 0 0 0 0 0 0
0 0 0 0 0 0 0 0 0 0 0 0 0 0 0 0 0 0 0 0 0 0 0 0 0 0 0 0 0 0 0 0 0 -4 0 -2 0 0 0 0 0 0 0 0
0 0 0 0 0 0 -1 0 0 0 0 0 0 0 0 0 0 0 0 0 0 0 0 0 0 0 0 0 0 0 0 0 0 0 0 0 0 0 0 0 0 0 0 0
0 0 0 0 0 0 0 0 0 0 0 0 0 0 0 0 0 0 0 0 0 0 0 0 0 0 0 0 0 0 0 0 0 0 0 0 0 0 0 0 -2 0 0 0
0 0 0 0 0 0 0 0 0 -1 -1 -1 0 -1 0 0 0 0 0 0 0 -1 0 0 0 0 0 0 0 0 0 0 0 0 0 0 0 0 0 0 0 0 0 0
0 0 0 0 0 -1 0 0 0 0 0 -1 -1 0 0 0 0 0 0 0 0 0 0 0 0 0 0 0 0 0 0 0 0 0 0 0 0 0 0 0 0 0 0 0
-1 0 0 0 0 0 0 -1 0 0 0 0 -1 0 0 0 0 0 0 0 0 0 0 0 0 0 0 0 0 0 0 0 0 0 0 0 0 0 0 0 0 0 0 0
Wind_Speed
29 30 31 33 33 32 36 34 38 34 35 31 31 38 38 33 32 31 30 31 30 30 30 32 32 32 33 35 35 37 37 37 36 35 33 32 33 34 35 32 32 29 30 32
34 32 33 36 36 36 40 41 43 41 44 35 36 32 35 34 34 36 35 33 33 33 35 35 35 36 37 38 39 39 40 39 37 37 35 33 32 31 30 31 32 32 33 34
36 30 33 39 38 38 39 37 38 44 42 37 34 34 35 34 34 33 33 32 32 35 35 36 36 38 39 41 41 42 41 40 38 35 35 33 30 28 29 29 28 29 32 33
34 31 39 30 26 30 33 34 34 35 36 35 34 31 29 29 28 30 31 33 33 33 33 35 35 37 37 35 38 38 40 38 35 33 33 33 32 30 27 25 25 28 30 30
30 33 35 38 30 29 29 31 28 31 30 28 27 29 29 23 26 30 32 34 35 35 36 36 36 36 39 39 40 38 37 37 35 33 31 28 28 27 25 24 24 25 28 27
25 30 31 21 19 19 24 34 21 23 24 26 26 34 25 26 32 34 35 36 37 39 40 39 38 38 39 41 42 40 37 35 32 30 28 26 26 24 26 21 22 20 21 21
25 27 26 24 23 21 28 25 23 24 26 28 32 33 35 37 38 37 38 39 39 42 43 43 40 40 41 42 44 41 38 36 30 28 27 23 23 25 22 17 17 16 15 15
19 21 27 18 18 23 21 22 24 26 28 31 33 35 37 40 42 43 44 43 43 44 44 43 41 42 46 47 47 42 38 30 27 24 21 21 22 21 19 16 14 13 10 9
16 17 16 18 18 18 21 24 27 31 33 36 38 41 42 45 46 47 47 47 46 46 48 46 44 43 47 50 47 40 36 26 23 20 19 18 16 16 14 13 12 11 9 8
17 16 17 18 17 17 22 27 29 32 35 37 41 43 45 46 48 48 47 46 46 46 47 50 47 46 49 51 45 40 31 26 22 19 16 13 14 12 12 13 12 13 11 11
18 20 19 17 16 23 29 30 33 34 35 38 40 42 43 46 47 47 46 46 44 44 45 47 49 52 52 48 40 35 26 22 19 15 13 12 10 11 11 9 10 8 6 5
23 19 22 23 25 30 32 34 36 38 39 38 37 39 43 44 43 42 43 46 49 51 53 52 53 53 50 45 40 22 21 19 19 13 13 12 7 8 0 1 2 3 4 5
21 19 22 24 25 26 33 34 34 34 34 36 35 37 39 39 39 43 46 48 42 40 38 39 36 37 35 38 18 18 19 20 19 15 14 13 8 8 5 2 1 2 1 2
18 20 20 22 27 28 30 32 30 19 20 24 35 36 37 38 37 39 34 34 33 29 30 25 22 20 15 6 13 16 19 20 17 18 11 5 5 7 6 4 3 2 1 2
16 19 23 24 24 27 26 27 27 27 26 24 33 34 34 32 31 27 25 23 21 18 14 12 11 11 17 22 21 14 25 17 19 10 6 5 5 4 4 6 5 5 4 3
18 21 20 23 25 27 28 25 26 25 25 26 29 28 27 25 23 19 17 21 17 11 10 9 8 8 12 19 11 12 11 13 13 9 6 7 6 6 6 7 7 5 4 3
19 19 20 22 24 27 26 23 19 21 21 24 23 22 22 21 17 15 14 18 15 10 13 13 4 4 2 10 12 13 10 9 8 7 7 7 7 7 7 6 6 5 5 6
18 19 20 23 26 26 26 26 21 21 22 20 19 18 17 15 13 14 12 13 12 11 11 10 6 6 8 7 8 8 7 7 7 7 7 7 7 7 7 6 6 5 4 5
20 21 23 24 26 26 26 28 21 17 19 18 18 18 17 16 15 14 12 13 12 9 9 8 7 5 3 3 4 4 5 5 6 6 6 7 7 8 8 7 5 4 3 4
22 22 24 24 26 27 27 25 19 17 16 19 19 19 18 18 18 15 14 12 11 10 9 8 7 4 3 2 4 4 4 4 6 7 8 6 5 4 3 2 3 5 6 8
23 23 23 24 26 27 25 23 21 19 16 16 22 19 18 18 17 16 14 13 12 11 10 8 7 6 5 4 2 1 1 2 3 4 6 6 4 4 4 5 6 8 9 11
23 24 24 24 25 25 25 23 24 23 20 19 17 22 20 19 17 16 15 13 13 12 11 10 9 8 8 7 6 5 5 4 5 5 4 4 5 5 6 7 9 11 12 13
25 24 24 24 24 25 24 22 22 22 23 22 21 20 21 20 19 17 16 15 15 14 13 12 11 9 8 7 6 5 5 5 5 5 5 6 7 8 10 12 13 13 14 16
27 26 26 25 24 24 24 22 23 21 20 20 19 18 16 21 20 18 18 17 15 14 14 13 12 12 11 10 9 9 8 9 9 9 10 11 11 12 12 13 14 15 16 18
25 25 25 26 26 25 24 24 24 23 22 21 20 19 19 19 21 20 19 17 17 17 15 14 13 12 11 10 10 9 10 10 10 11 11 12 12 12 13 14 15 16 17 18
24 25 25 24 25 27 26 25 26 24 23 23 22 20 20 19 18 18 19 18 17 17 17 17 15 14 13 12 12 11 11 11 12 12 13 13 13 14 14 16 16 16 18 18
19 22 24 23 22 22 24 25 26 26 25 24 24 24 23 21 17 16 16 17 17 16 16 16 15 15 14 15 14 13 13 13 14 14 14 14 15 15 15 15 15 16 17 18
Wind_Direction
282 282 279 277 277 275 270 273 269 277 278 286 282 272 273 275 278 286 292 288 291 296 291 291 298 298 297 293 292 285 285 285 286 285 288 288 283 280 278 278 273 258 254 254
282 281 280 278 277 277 273 271 272 279 280 288 286 285 279 279 284 283 283 287 290 290 288 292 297 297 296 291 285 286 282 283 286 286 286 288 288 286 284 281 276 272 267 262
277 284 284 279 275 276 278 279 283 280 285 289 287 285 284 287 292 292 290 291 299 294 292 292 293 296 295 293 287 283 285 284 284 287 287 289 291 290 287 284 280 275 270 268
281 283 277 286 290 287 284 286 287 286 287 288 287 292 295 296 296 297 300 297 301 304 305 300 302 300 303 307 297 293 289 289 289 288 287 287 288 290 287 285 284 277 273 271
280 279 284 287 287 287 288 289 294 291 292 293 296 298 298 300 305 303 305 305 303 305 306 306 306 305 300 302 301 300 294 292 288 286 285 286 285 285 282 285 285 281 277 275
283 281 282 297 304 308 303 290 304 305 304 300 301 291 299 307 308 306 304 304 303 303 302 302 302 303 302 301 302 299 295 292 289 286 282 279 280 279 282 281 279 281 282 281
274 280 288 300 301 307 290 294 309 311 308 304 298 299 303 304 304 305 304 303 303 300 298 298 299 299 299 299 299 295 291 288 285 283 278 274 274 276 275 276 275 278 283 283
277 282 287 313 313 298 309 313 314 314 313 309 306 305 305 303 302 302 301 301 300 299 296 296 296 296 293 292 294 289 285 282 280 276 273 274 271 269 270 266 264 264 267 272
299 305 315 320 316 323 320 316 315 312 310 308 305 304 304 302 301 301 301 299 299 297 294 292 293 293 290 289 291 285 279 270 271 269 272 270 261 259 256 252 246 244 240 250
308 315 316 320 328 330 327 320 319 317 313 312 308 307 306 306 304 303 303 302 301 299 295 292 292 291 289 289 285 277 271 262 261 252 258 263 261 249 241 242 244 241 245 248
307 313 325 334 339 327 319 319 317 317 317 315 312 310 310 308 306 305 303 302 302 299 296 293 291 287 286 283 277 266 254 247 239 239 242 242 254 255 242 251 239 216 204 179
308 328 326 326 326 321 319 317 316 315 314 316 315 310 309 306 306 307 304 301 294 291 280 271 272 271 273 271 262 235 229 224 215 219 227 224 209 222 287 158 191 209 216 215
325 335 331 330 330 329 317 319 322 323 322 320 319 315 312 309 311 305 297 300 284 274 267 267 257 255 245 218 207 206 205 205 208 220 207 207 213 213 198 230 140 100 128 121
340 337 337 337 321 324 316 314 327 356 352 346 320 310 308 304 296 297 289 289 287 280 286 274 273 278 259 198 179 182 188 195 210 200 205 179 153 218 217 200 154 124 66 123
347 342 324 330 294 326 348 351 356 352 350 352 328 298 297 289 292 291 295 297 292 287 271 270 283 257 214 196 191 175 199 200 194 186 174 144 164 160 138 119 159 171 153 126
315 295 288 303 331 328 346 6 5 7 3 356 293 289 285 281 286 289 301 330 326 313 306 311 291 251 220 197 171 182 160 161 185 176 152 129 151 170 178 182 180 162 161 151
275 286 294 303 306 341 7 19 23 19 16 291 287 286 287 283 280 296 303 339 343 342 354 2 355 7 118 179 175 153 155 161 149 137 141 129 151 159 141 154 166 175 197 220
281 293 296 316 333 1 10 15 27 28 26 290 286 291 300 301 298 299 296 323 333 346 357 7 21 46 67 113 137 147 147 134 126 129 138 136 133 138 147 160 188 200 217 244
288 309 326 339 350 359 7 13 30 38 38 292 294 299 302 308 304 298 299 322 326 326 331 347 6 25 69 107 151 102 102 128 113 118 134 146 171 185 192 202 214 238 275 310
308 322 330 342 342 348 359 19 36 45 53 300 295 300 304 313 318 312 310 312 309 303 310 337 346 347 2 12 55 72 91 104 111 180 192 189 192 195 217 250 285 294 310 323
318 326 334 338 333 332 355 14 29 41 56 62 321 309 304 305 308 305 295 290 300 306 308 309 319 318 299 286 293 329 77 172 198 203 210 214 226 251 274 295 307 315 324 331
317 320 324 328 332 335 340 352 357 12 32 46 57 325 305 304 301 308 301 287 284 300 311 306 292 283 266 261 255 251 247 244 242 244 254 266 277 294 314 324 331 332 334 336
314 316 319 321 324 325 328 336 342 350 355 12 26 36 318 307 306 295 291 293 285 283 298 300 292 287 287 274 274 278 274 269 272 279 292 302 308 312 315 321 327 331 334 333
313 312 312 315 317 319 320 325 326 336 346 354 9 21 44 313 307 309 304 292 292 287 289 292 289 276 273 270 269 270 270 271 275 281 288 298 304 312 318 325 332 336 336 335
319 314 309 307 307 309 312 314 315 318 322 329 336 345 358 1 319 313 306 301 293 286 287 288 284 281 280 279 281 283 282 288 292 299 303 306 314 315 319 325 328 331 337 338
323 315 309 304 302 301 302 305 305 307 311 311 314 322 326 335 344 345 323 309 300 292 281 279 282 281 281 280 282 288 294 299 302 305 308 309 310 314 316 317 328 339 337 340
334 326 316 306 299 298 297 299 300 299 301 304 304 305 304 314 326 333 344 324 306 303 296 286 279 281 280 279 282 286 291 296 298 300 301 303 306 311 318 329 338 337 340 344